TimeCDT,TemperatureF,Dew PointF,Humidity,Sea Level PressureIn,VisibilityMPH,Wind Direction,Wind SpeedMPH,Gust SpeedMPH,PrecipitationIn,Events,Conditions,WindDirDegrees,DateUTC
12:30 AM,48.2,44.6,87,30.25,10.0,North,6.9,-,N/A,,Mostly Cloudy,360,2013-04-25 05:30:00
12:53 AM,48.9,45.0,86,30.25,10.0,North,5.8,-,N/A,,Overcast,360,2013-04-25 05:53:00
1:53 AM,48.0,44.1,86,30.24,10.0,North,10.4,-,N/A,,Overcast,360,2013-04-25 06:53:00
2:17 AM,46.4,42.8,87,30.25,10.0,North,11.5,16.1,N/A,,Mostly Cloudy,10,2013-04-25 07:17:00
2:40 AM,46.4,42.8,87,30.25,10.0,North,6.9,-,N/A,,Overcast,360,2013-04-25 07:40:00
2:53 AM,46.9,42.1,83,30.25,10.0,NNE,5.8,-,N/A,,Overcast,20,2013-04-25 07:53:00
3:53 AM,46.9,42.1,83,30.26,10.0,North,6.9,-,N/A,,Overcast,360,2013-04-25 08:53:00
4:53 AM,46.0,41.0,83,30.27,10.0,North,4.6,-,N/A,,Overcast,360,2013-04-25 09:53:00
5:32 AM,42.8,39.2,87,30.30,10.0,NNW,5.8,-,N/A,,Scattered Clouds,340,2013-04-25 10:32:00
5:53 AM,42.1,39.0,89,30.30,10.0,NNW,6.9,-,N/A,,Clear,340,2013-04-25 10:53:00
6:53 AM,43.0,39.9,89,30.32,10.0,North,5.8,-,N/A,,Clear,360,2013-04-25 11:53:00
7:53 AM,46.0,39.9,79,30.34,10.0,North,8.1,-,N/A,,Clear,10,2013-04-25 12:53:00
8:53 AM,48.9,39.9,71,30.36,10.0,North,11.5,-,N/A,,Partly Cloudy,10,2013-04-25 13:53:00
9:53 AM,52.0,39.0,61,30.37,10.0,NE,10.4,-,N/A,,Clear,50,2013-04-25 14:53:00
10:53 AM,55.9,39.9,55,30.38,10.0,North,9.2,-,N/A,,Clear,350,2013-04-25 15:53:00
11:53 AM,59.0,37.0,44,30.38,10.0,North,8.1,-,N/A,,Clear,350,2013-04-25 16:53:00
12:53 PM,63.0,37.0,38,30.35,10.0,Variable,6.9,-,N/A,,Clear,0,2013-04-25 17:53:00
1:53 PM,66.0,35.1,32,30.35,10.0,Variable,6.9,-,N/A,,Clear,0,2013-04-25 18:53:00
2:53 PM,68.0,35.1,30,30.33,10.0,North,10.4,18.4,N/A,,Clear,360,2013-04-25 19:53:00
3:53 PM,68.0,34.0,28,30.31,10.0,North,6.9,-,N/A,,Clear,360,2013-04-25 20:53:00
4:53 PM,68.0,33.1,27,30.32,10.0,North,9.2,-,N/A,,Clear,350,2013-04-25 21:53:00
5:53 PM,66.9,30.9,26,30.32,10.0,North,9.2,-,N/A,,Clear,10,2013-04-25 22:53:00
6:53 PM,63.0,35.1,35,30.32,10.0,North,6.9,-,N/A,,Clear,10,2013-04-25 23:53:00
7:53 PM,57.0,39.9,53,30.33,10.0,Calm,Calm,-,N/A,,Clear,0,2013-04-26 00:53:00
8:53 PM,54.0,41.0,62,30.35,10.0,Calm,Calm,-,N/A,,Clear,0,2013-04-26 01:53:00
9:53 PM,51.1,41.0,68,30.36,10.0,Calm,Calm,-,N/A,,Clear,0,2013-04-26 02:53:00
10:53 PM,48.9,41.0,74,30.35,10.0,Calm,Calm,-,N/A,,Clear,0,2013-04-26 03:53:00
11:53 PM,46.9,41.0,80,30.36,10.0,Calm,Calm,-,N/A,,Clear,0,2013-04-26 04:53:00